TimeCST,TemperatureF,Dew PointF,Humidity,Sea Level PressureIn,VisibilityMPH,Wind Direction,Wind SpeedMPH,Gust SpeedMPH,PrecipitationIn,Events,Conditions,WindDirDegrees,DateUTC
12:15 AM,30.2,28.4,93,30.39,10.0,SSW,3.5,-,N/A,,Clear,210,2013-01-05 06:15:00
12:35 AM,30.2,28.4,93,30.38,10.0,Calm,Calm,-,N/A,,Clear,0,2013-01-05 06:35:00
12:55 AM,30.2,28.4,93,30.37,9.0,Calm,Calm,-,N/A,,Clear,0,2013-01-05 06:55:00
1:15 AM,30.2,28.4,93,30.37,9.0,Calm,Calm,-,N/A,,Clear,0,2013-01-05 07:15:00
1:55 AM,30.2,28.4,93,30.37,7.0,Calm,Calm,-,N/A,,Clear,0,2013-01-05 07:55:00
2:15 AM,30.2,30.2,100,30.38,9.0,Calm,Calm,-,N/A,,Clear,0,2013-01-05 08:15:00
2:35 AM,30.2,30.2,100,30.37,7.0,Calm,Calm,-,N/A,,Partly Cloudy,0,2013-01-05 08:35:00
2:55 AM,32.0,30.2,93,30.37,7.0,SSE,3.5,-,N/A,,Mostly Cloudy,150,2013-01-05 08:55:00
3:15 AM,32.0,30.2,93,30.36,7.0,SSE,3.5,-,N/A,,Mostly Cloudy,160,2013-01-05 09:15:00
3:55 AM,32.0,30.2,93,30.36,6.0,South,4.6,-,N/A,,Mostly Cloudy,170,2013-01-05 09:55:00
4:15 AM,32.0,30.2,93,30.36,5.0,South,4.6,-,N/A,,Overcast,180,2013-01-05 10:15:00
4:35 AM,32.0,30.2,93,30.37,5.0,SSW,3.5,-,N/A,,Mostly Cloudy,200,2013-01-05 10:35:00
4:55 AM,32.0,30.2,93,30.37,6.0,South,4.6,-,N/A,,Overcast,180,2013-01-05 10:55:00
5:35 AM,32.0,30.2,93,30.36,6.0,South,5.8,-,N/A,,Mostly Cloudy,180,2013-01-05 11:35:00
5:55 AM,32.0,30.2,93,30.39,5.0,SW,6.9,-,N/A,,Mostly Cloudy,230,2013-01-05 11:55:00
6:35 AM,33.8,30.2,87,30.37,5.0,Calm,Calm,-,N/A,,Overcast,0,2013-01-05 12:35:00
6:55 AM,33.8,30.2,87,30.37,5.0,South,3.5,-,N/A,,Overcast,170,2013-01-05 12:55:00
7:35 AM,33.8,32.0,93,30.39,6.0,South,5.8,-,N/A,,Overcast,180,2013-01-05 13:35:00
7:55 AM,33.8,30.2,87,30.39,7.0,South,6.9,-,N/A,,Overcast,180,2013-01-05 13:55:00
8:15 AM,33.8,32.0,93,30.39,8.0,South,5.8,-,N/A,,Mostly Cloudy,170,2013-01-05 14:15:00
8:35 AM,35.6,30.2,81,30.39,9.0,South,8.1,-,N/A,,Overcast,190,2013-01-05 14:35:00
8:55 AM,35.6,32.0,87,30.37,10.0,SSE,4.6,-,N/A,,Overcast,160,2013-01-05 14:55:00
9:15 AM,35.6,32.0,87,30.39,10.0,South,6.9,-,N/A,,Overcast,180,2013-01-05 15:15:00
9:55 AM,35.6,32.0,87,30.39,10.0,South,8.1,-,N/A,,Overcast,190,2013-01-05 15:55:00
10:15 AM,37.4,30.2,75,30.38,10.0,South,8.1,-,N/A,,Overcast,170,2013-01-05 16:15:00
10:55 AM,39.2,30.2,70,30.37,10.0,SSW,9.2,-,N/A,,Mostly Cloudy,200,2013-01-05 16:55:00
11:35 AM,41.0,30.2,65,30.34,10.0,SW,9.2,-,N/A,,Overcast,220,2013-01-05 17:35:00
11:55 AM,41.0,33.8,76,30.31,10.0,SSW,6.9,-,N/A,,Overcast,210,2013-01-05 17:55:00
12:15 PM,41.0,33.8,76,30.30,10.0,South,10.4,-,N/A,,Overcast,170,2013-01-05 18:15:00
12:35 PM,41.0,35.6,81,30.29,10.0,South,10.4,-,N/A,,Overcast,180,2013-01-05 18:35:00
12:55 PM,41.0,33.8,76,30.29,10.0,South,10.4,-,N/A,,Overcast,180,2013-01-05 18:55:00
1:35 PM,42.8,33.8,70,30.26,10.0,South,11.5,-,N/A,,Overcast,170,2013-01-05 19:35:00
2:15 PM,42.8,33.8,70,30.25,10.0,South,11.5,-,N/A,,Overcast,180,2013-01-05 20:15:00
2:35 PM,42.8,35.6,76,30.25,10.0,South,11.5,-,N/A,,Overcast,180,2013-01-05 20:35:00
3:15 PM,44.6,37.4,76,30.25,10.0,South,12.7,-,N/A,,Mostly Cloudy,180,2013-01-05 21:15:00
3:35 PM,44.6,35.6,71,30.25,10.0,South,11.5,-,N/A,,Scattered Clouds,180,2013-01-05 21:35:00
3:55 PM,44.6,35.6,71,30.24,10.0,South,15.0,-,N/A,,Scattered Clouds,180,2013-01-05 21:55:00
4:15 PM,42.8,35.6,76,30.24,10.0,South,10.4,-,N/A,,Clear,180,2013-01-05 22:15:00
5:15 PM,39.2,35.6,87,30.26,10.0,South,9.2,-,N/A,,Clear,190,2013-01-05 23:15:00
5:35 PM,39.2,35.6,87,30.26,10.0,South,9.2,-,N/A,,Clear,180,2013-01-05 23:35:00
5:55 PM,39.2,35.6,87,30.26,10.0,South,10.4,-,N/A,,Mostly Cloudy,170,2013-01-05 23:55:00
6:15 PM,37.4,35.6,93,30.25,10.0,South,10.4,-,N/A,,Partly Cloudy,170,2013-01-06 00:15:00
6:35 PM,37.4,33.8,87,30.25,10.0,South,9.2,-,N/A,,Clear,170,2013-01-06 00:35:00
7:15 PM,35.6,33.8,93,30.26,10.0,South,8.1,-,N/A,,Clear,190,2013-01-06 01:15:00
7:55 PM,35.6,33.8,93,30.25,10.0,South,10.4,-,N/A,,Clear,190,2013-01-06 01:55:00
8:55 PM,35.6,33.8,93,30.25,10.0,South,8.1,-,N/A,,Scattered Clouds,190,2013-01-06 02:55:00
9:15 PM,35.6,33.8,93,30.26,10.0,SSW,8.1,-,N/A,,Mostly Cloudy,200,2013-01-06 03:15:00
9:35 PM,35.6,33.8,93,30.25,10.0,SSW,8.1,-,N/A,,Overcast,200,2013-01-06 03:35:00
9:55 PM,35.6,35.6,100,30.25,10.0,SSW,9.2,-,N/A,,Overcast,200,2013-01-06 03:55:00
10:15 PM,37.4,35.6,93,30.26,10.0,SSW,10.4,-,N/A,,Overcast,200,2013-01-06 04:15:00
10:35 PM,37.4,35.6,93,30.25,10.0,SSW,10.4,-,N/A,,Overcast,210,2013-01-06 04:35:00
11:15 PM,37.4,35.6,93,30.25,9.0,SW,9.2,-,N/A,,Overcast,220,2013-01-06 05:15:00
11:35 PM,37.4,35.6,93,30.25,8.0,SW,10.4,-,N/A,,Mostly Cloudy,220,2013-01-06 05:35:00
11:55 PM,37.4,35.6,93,30.25,7.0,SW,10.4,-,N/A,,Mostly Cloudy,220,2013-01-06 05:55:00